Ketchikan, AK

2:35 AM AKDT on August 20, 2017 (GMT -0800)
Ketchikan International

Weather History for PAKT - February, 2013

Change the Weather History Date:

Friday, February 15, 2013

  Actual Average Record
Temperature  
Mean Temperature 44 °F -  
Max Temperature 46 °F 41 °F 51 °F (1968)
Min Temperature 41 °F 30 °F 9 °F (1954)
Degree Days  
Heating Degree Days 22    
Moisture  
Dew Point 44 °F    
Average Humidity 98    
Maximum Humidity 100    
Minimum Humidity 93    
Precipitation  
Precipitation 1.79 in - - ()
Sea Level Pressure  
Sea Level Pressure 30.02 in    
Wind  
Wind Speed 17 mph (SE)    
Max Wind Speed 24 mph    
Max Gust Speed 40 mph    
Visibility 7 miles    
Events Rain    
Averages and records for this station are not official NWS values.
T = Trace of Precipitation, MM = Missing Value Source: NWS Daily Summary

Daily Weather History Graph

Daily Weather History Graph

Search for Another Location

Airport or City:

Trip Planner

Search our weather history database for the weather conditions in past years. The results will help you decide how hot, cold, wet, or windy it might be!

Date:

Astronomy

Feb. 15, 2013 Rise Set
Actual Time 7:09 AM AKST 4:53 PM AKST
Civil Twilight 6:31 AM AKST 5:31 PM AKST
Nautical Twilight 5:48 AM AKST 6:14 PM AKST
Astronomical Twilight 5:06 AM AKST 6:56 PM AKST
Moon 8:42 AM AKST (2/15) No Moon Set
Length of Visible Light 11h 00m
Length of Day
9h 44m
Waxing Crescent, 31% of the Moon is Illuminated
Feb 15
Waxing Crescent
Feb 17
First Quarter
Feb 25
Full
Mar 4
Last Quarter
Mar 11
New

Hourly Weather History & Observations

Time (AKST) Temp. Windchill Dew Point Humidity Pressure Visibility Wind Dir Wind Speed Gust Speed Precip Events Conditions
12:53 AM 46.9 °F - 46.9 °F 100% 30.14 in 5.0 mi SE 20.7 mph 33.4 mph 0.07 in Rain Rain
1:00 AM 46.4 °F 39.0 °F 46.4 °F 100% 30.14 in 6.0 mi SE 19.6 mph 33.4 mph 0.02 in Rain Rain
1:53 AM 46.9 °F - 46.9 °F 100% 30.14 in 7.0 mi SE 18.4 mph 32.2 mph 0.08 in Rain Light Rain
2:48 AM 46.4 °F 38.7 °F 46.4 °F 100% 30.13 in 7.0 mi SE 20.7 mph 29.9 mph 0.02 in Rain Light Rain
2:53 AM 46.9 °F - 46.9 °F 100% 30.14 in 5.0 mi SE 18.4 mph 29.9 mph 0.02 in Rain Light Rain
2:58 AM 46.4 °F 38.1 °F 46.4 °F 100% 30.13 in 6.0 mi SE 24.2 mph 31.1 mph 0.01 in Rain Light Rain
3:53 AM 46.9 °F - 46.9 °F 100% 30.13 in 8.0 mi SE 20.7 mph 31.1 mph 0.03 in   Overcast
4:18 AM 46.4 °F 39.8 °F 46.4 °F 100% 30.11 in 8.0 mi SE 16.1 mph 28.8 mph 0.00 in Rain Light Rain
4:53 AM 46.0 °F 38.3 °F 46.0 °F 100% 30.09 in 8.0 mi SE 20.7 mph 31.1 mph 0.00 in   Overcast
5:03 AM 46.4 °F 39.8 °F 46.4 °F 100% 30.10 in 8.0 mi SE 16.1 mph 26.5 mph 0.00 in Rain Light Rain
5:53 AM 46.9 °F - 45.0 °F 93% 30.07 in 10.0 mi SE 16.1 mph 29.9 mph 0.00 in   Overcast
6:00 AM 46.4 °F 38.7 °F 44.6 °F 93% 30.07 in 9.0 mi SE 20.7 mph 34.5 mph 0.00 in Rain Light Rain
6:12 AM 46.4 °F 39.0 °F 44.6 °F 93% 30.07 in 6.0 mi SE 19.6 mph 27.6 mph 0.02 in Rain Light Rain
6:53 AM 46.0 °F 38.3 °F 45.0 °F 96% 30.05 in 8.0 mi SE 20.7 mph 28.8 mph 0.03 in Rain Light Rain
7:53 AM 46.0 °F 38.0 °F 45.0 °F 96% 30.04 in 3.0 mi SE 21.9 mph 34.5 mph 0.13 in Rain Rain
8:53 AM 46.0 °F 38.3 °F 45.0 °F 96% 30.01 in 4.0 mi SE 20.7 mph 33.4 mph 0.15 in Rain Light Rain
9:49 AM 46.4 °F 38.5 °F 46.4 °F 100% 30.01 in 3.0 mi SE 21.9 mph 34.5 mph 0.14 in Rain Rain
9:53 AM 46.0 °F 38.3 °F 46.0 °F 100% 30.01 in 3.0 mi SE 20.7 mph 33.4 mph 0.15 in Rain Rain
10:53 AM 46.0 °F 37.6 °F 45.0 °F 96% 30.00 in 3.0 mi SE 24.2 mph 40.3 mph 0.21 in Rain Rain
11:53 AM 46.4 °F 38.7 °F 46.4 °F 100% 29.99 in 3.0 mi SE 20.7 mph 27.6 mph N/A Rain Rain
12:53 PM 46.0 °F 39.6 °F 46.0 °F 100% 29.98 in 3.0 mi SE 15.0 mph 21.9 mph 0.17 in Rain Rain
1:53 PM 46.0 °F 39.9 °F 45.0 °F 96% 29.97 in 3.0 mi SE 13.8 mph 21.9 mph 0.14 in Rain Rain
2:53 PM 45.0 °F 37.6 °F 45.0 °F 100% 29.96 in 4.0 mi SE 17.3 mph 24.2 mph 0.15 in Rain Rain
3:53 PM 45.0 °F 42.6 °F 45.0 °F 100% 29.96 in 4.0 mi SE 4.6 mph - 0.12 in Rain Rain
4:51 PM 44.6 °F 43.1 °F 42.8 °F 93% 29.96 in 8.0 mi SE 3.5 mph - 0.12 in Rain Rain
4:53 PM 44.1 °F 40.8 °F 42.1 °F 93% 29.96 in 8.0 mi SE 5.8 mph - 0.12 in Rain Rain
5:53 PM 43.0 °F 38.2 °F 43.0 °F 100% 29.96 in 10.0 mi ESE 8.1 mph - 0.09 in Rain Light Rain
6:43 PM 42.8 °F 39.3 °F 42.8 °F 100% 29.94 in 10.0 mi SSE 5.8 mph - 0.01 in   Overcast
6:53 PM 43.0 °F 40.3 °F 42.1 °F 97% 29.95 in 10.0 mi SSE 4.6 mph - 0.01 in   Overcast
7:53 PM 42.1 °F 40.2 °F 42.1 °F 100% 29.96 in 10.0 mi SSE 3.5 mph - 0.01 in Rain Light Rain
8:53 PM 42.1 °F 40.2 °F 42.1 °F 100% 29.96 in 10.0 mi SSE 3.5 mph - 0.01 in   Overcast
9:23 PM 41.0 °F 35.8 °F 41.0 °F 100% 29.96 in 4.0 mi North 8.1 mph - 0.00 in Rain Light Rain
9:44 PM 41.0 °F 35.8 °F 41.0 °F 100% 29.96 in 3.0 mi North 8.1 mph - 0.03 in Rain Light Rain
9:53 PM 41.0 °F 36.4 °F 41.0 °F 100% 29.96 in 3.0 mi North 6.9 mph - 0.04 in Rain Light Rain
10:53 PM 41.0 °F 39.0 °F 41.0 °F 100% 29.97 in 10.0 mi NNW 3.5 mph - 0.05 in Rain Light Rain
11:17 PM 41.0 °F 39.0 °F 41.0 °F 100% 29.97 in 10.0 mi NNW 3.5 mph - 0.01 in Rain Light Rain
11:28 PM 41.0 °F 38.0 °F 41.0 °F 100% 29.97 in 10.0 mi NNW 4.6 mph - 0.01 in   Overcast
11:53 PM 41.0 °F 37.1 °F 41.0 °F 100% 29.98 in 10.0 mi NNW 5.8 mph - 0.01 in   Overcast